This is the latest recevied weather packets stored in our database for station/object NE8U. If no packets are shown the sender has not sent any weather packets the latest 10 day(s).
| Time | Temp. | Humidity | Pressure | Rain* | Wind** | Luminosity | Snow |
|---|---|---|---|---|---|---|---|
| 1777651105 | 23.89° C | 40% | 1015.2 hPa | 0 mm | - | 683 W/m² | - |
| 1777650802 | 22.22° C | 42% | 1015 hPa | 0 mm | - | 669 W/m² | - |
| 1777650499 | 21.67° C | 45% | 1014.9 hPa | 0 mm | - | 653 W/m² | - |
| 1777650196 | 21.67° C | 46% | 1014.8 hPa | 0 mm | - | 593 W/m² | - |
| 1777649894 | 21.67° C | 46% | 1015 hPa | 0 mm | - | 588 W/m² | - |
| 1777649591 | 21.67° C | 45% | 1014.9 hPa | 0 mm | - | 583 W/m² | - |
| 1777649286 | 21.67° C | 46% | 1014.9 hPa | 0 mm | - | 565 W/m² | - |
| 1777648984 | 21.67° C | 45% | 1014.6 hPa | 0 mm | - | 536 W/m² | - |
| 1777648682 | 21.11° C | 47% | 1014.8 hPa | 0 mm | - | 473 W/m² | - |
| 1777648377 | 21.11° C | 48% | 1014.6 hPa | 0 mm | - | 383 W/m² | - |
| 1777648073 | 20.56° C | 49% | 1014.6 hPa | 0 mm | - | 402 W/m² | - |
| 1777647770 | 20° C | 49% | 1014.5 hPa | 0 mm | - | 335 W/m² | - |
| 1777647466 | 20° C | 51% | 1014.5 hPa | 0 mm | - | 296 W/m² | - |
| 1777647164 | 20° C | 52% | 1014.4 hPa | 0 mm | - | 263 W/m² | - |
| 1777646860 | 20° C | 51% | 1014.3 hPa | 0 mm | - | 235 W/m² | - |
| 1777646556 | 19.44° C | 53% | 1014.3 hPa | 0 mm | - | 247 W/m² | - |
| 1777646252 | 18.89° C | 54% | 1014.4 hPa | 0 mm | - | 223 W/m² | - |
| 1777645949 | 18.89° C | 55% | 1014.4 hPa | 0 mm | - | 205 W/m² | - |
| 1777645641 | 18.89° C | 55% | 1014.3 hPa | 0 mm | - | 201 W/m² | - |
| 1777645337 | 18.89° C | 55% | 1014.2 hPa | 0 mm | - | 190 W/m² | - |
| 1777645033 | 18.33° C | 56% | 1014.2 hPa | 0 mm | - | 190 W/m² | - |
| 1777644730 | 18.33° C | 57% | 1014.3 hPa | 0 mm | - | 186 W/m² | - |
| 1777644427 | 17.78° C | 54% | 1014.2 hPa | 0 mm | - | 166 W/m² | - |
| 1777644124 | 17.78° C | 54% | 1014.3 hPa | 0 mm | - | 151 W/m² | - |
| 1777643820 | 17.22° C | 55% | 1014.3 hPa | 0 mm | - | 123 W/m² | - |
* Rain latest hour (hover to see other rain measurements)
** Current wind speed in m/s (hover to see current wind gust speed)